Location: Mohawk View
(42.7837°N, 73.7885°W)
Time: 02:21:10
(UTC+00:00)

Cosmos 2151 - Pass Details

Date: 17 June 2021
Orbit: 582 x 600 km, 82.5° (Epoch: 02 August)

Event Time Altitude Azimuth Distance (km) Brightness Sun altitude
Exits shadow 07:45:28 21° 218° (SW) 1,335 4.1 -13.2°
Maximum altitude 07:47:57 45° 282° (WNW) 804 3.4 -12.9°
Drops below altitude 10° 07:52:01 10° 356° (N) 1,914 6.2 -12.4°
Sets 07:54:18 0° 3° (N) 2,817 7.3 -12.2°
